TimeEST,TemperatureF,Dew PointF,Humidity,Sea Level PressureIn,VisibilityMPH,Wind Direction,Wind SpeedMPH,Gust SpeedMPH,PrecipitationIn,Events,Conditions,WindDirDegrees,DateUTC
12:54 AM,34.0,19.9,56,29.96,10.0,SW,9.2,-,N/A,,Partly Cloudy,220,2013-02-01 05:54:00
1:54 AM,35.1,21.0,57,29.93,10.0,SW,11.5,-,N/A,,Clear,220,2013-02-01 06:54:00
2:54 AM,37.0,21.9,54,29.89,10.0,SSW,18.4,26.5,N/A,,Clear,210,2013-02-01 07:54:00
3:54 AM,37.9,23.0,55,29.86,10.0,SW,17.3,27.6,N/A,,Clear,220,2013-02-01 08:54:00
4:54 AM,39.0,24.1,55,29.87,10.0,West,13.8,-,N/A,,Mostly Cloudy,260,2013-02-01 09:54:00
5:54 AM,39.9,24.1,53,29.91,10.0,WSW,18.4,-,N/A,,Overcast,250,2013-02-01 10:54:00
6:33 AM,35.6,26.6,70,29.96,10.0,NW,20.7,33.4,N/A,,Overcast,320,2013-02-01 11:33:00
6:54 AM,35.1,24.1,64,30.00,10.0,NNW,13.8,26.5,N/A,,Overcast,330,2013-02-01 11:54:00
7:54 AM,30.9,9.0,40,30.09,10.0,NW,17.3,28.8,N/A,,Partly Cloudy,310,2013-02-01 12:54:00
8:54 AM,30.9,3.0,31,30.14,10.0,NW,23.0,40.3,N/A,,Partly Cloudy,320,2013-02-01 13:54:00
9:54 AM,30.0,3.0,32,30.19,10.0,NW,23.0,32.2,N/A,,Partly Cloudy,310,2013-02-01 14:54:00
10:54 AM,30.9,5.0,33,30.22,10.0,NW,16.1,24.2,N/A,,Clear,310,2013-02-01 15:54:00
11:54 AM,30.9,-0.9,26,30.25,10.0,NW,21.9,28.8,N/A,,Clear,310,2013-02-01 16:54:00
12:54 PM,32.0,-0.0,26,30.24,10.0,NW,20.7,27.6,N/A,,Clear,310,2013-02-01 17:54:00
1:54 PM,34.0,1.0,25,30.23,10.0,NW,15.0,21.9,N/A,,Clear,320,2013-02-01 18:54:00
2:54 PM,35.1,-2.0,21,30.25,10.0,NW,17.3,27.6,N/A,,Clear,320,2013-02-01 19:54:00
3:54 PM,34.0,-0.9,23,30.26,10.0,WNW,19.6,27.6,N/A,,Clear,300,2013-02-01 20:54:00
4:54 PM,33.1,-0.0,24,30.27,10.0,NW,11.5,21.9,N/A,,Clear,310,2013-02-01 21:54:00
5:54 PM,30.9,-0.0,27,30.29,10.0,NNW,6.9,-,N/A,,Clear,330,2013-02-01 22:54:00
6:54 PM,28.9,1.9,32,30.31,10.0,NNW,3.5,-,N/A,,Clear,340,2013-02-01 23:54:00
7:54 PM,27.0,3.0,36,30.33,10.0,North,3.5,-,N/A,,Clear,10,2013-02-02 00:54:00
8:54 PM,26.1,3.9,39,30.36,10.0,NNW,4.6,-,N/A,,Clear,330,2013-02-02 01:54:00
9:54 PM,25.0,5.0,43,30.36,10.0,North,5.8,-,N/A,,Clear,360,2013-02-02 02:54:00
10:54 PM,25.0,5.0,43,30.36,10.0,NNW,3.5,-,N/A,,Clear,340,2013-02-02 03:54:00
11:54 PM,24.1,5.0,44,30.37,10.0,NNE,4.6,-,N/A,,Clear,30,2013-02-02 04:54:00